Flag for Slovakia Weather past 2 weeks in Prešov, Slovakia

Now
82 °F

Sunny.


Feels Like: 82 °F
Forecast: 62 / 82 °F
Wind: 1 mph from North

Location: Kosice - Barca

Current Time: Jul 31, 2014 at 6:45:46 PM

Latest Report: Jul 31, 2014 at 6:00 PM


Visibility: 10 mi

Pressure: 29.83 "Hg

Humidity: 45%

Dew point: 59 °F

Location of PrešovLocation

Historic Weather in Prešov — Graph

°F

Prešov temperature yesterday

Maximum temperature yesterday: 81 °F (at 12:30 PM)
Minimum temperature yesterday: 63 °F (at 2:30 AM)
Average temperature yesterday: 72 °F

Past Weeks' High & Low Weather Summary

 TemperatureHumidityPressure
High86 °F (Jul 20, 12:30 PM)100% (Jul 22, 12:00 AM)30.09 "Hg (Jul 22, 12:00 AM)
Low61 °F (Jul 20, 4:30 AM)31% (Jul 19, 6:00 PM)29.77 "Hg (Jul 21, 5:00 PM)
Average72 °F71%29.92 "Hg
* Reported Jul 16 5:00 PM — Jul 31 5:30 PM, Prešov, Weather by CustomWeather, © 2014

Note: Actual official high and low records may vary slightly from our data, if they occured in-between our weather recording intervals... More about our weather records

Advertising

Prešov weather history for previous 24 hours

 ConditionsComfort  
Time TempWeatherWind HumidityBarometerVisibility
5:30 PM
Jul 31
82 °FPassing clouds.1 mph51%29.83 "HgN/A
5:00 PM82 °FPassing clouds.3 mph51%29.83 "HgN/A
4:30 PM81 °FPassing clouds.2 mph58%29.83 "HgN/A
4:00 PM82 °FPassing clouds.5 mph51%29.83 "HgN/A
3:30 PM81 °FPassing clouds.5 mph58%29.83 "HgN/A
3:00 PM81 °FPassing clouds.7 mph58%29.83 "HgN/A
2:30 PM81 °FScattered clouds.9 mph62%29.83 "HgN/A
2:00 PM79 °FScattered clouds.7 mph61%29.86 "HgN/A
1:30 PM79 °FScattered clouds.7 mph65%29.86 "HgN/A
1:00 PM79 °FScattered clouds.5 mph65%29.86 "HgN/A
12:30 PM79 °FScattered clouds.2 mph70%29.86 "HgN/A
12:00 PM79 °FScattered clouds.6 mph65%29.86 "HgN/A
11:30 AM77 °FPassing clouds.3 mph65%29.86 "HgN/A
11:00 AM75 °FPassing clouds.5 mph69%29.83 "HgN/A
10:30 AM75 °FPassing clouds.6 mph74%29.83 "HgN/A
10:00 AM73 °FPassing clouds.5 mph78%29.83 "HgN/A
9:30 AM73 °FPassing clouds.3 mph78%29.83 "HgN/A
9:00 AM72 °FPassing clouds.6 mph83%29.83 "HgN/A
8:30 AM70 °FLight rain. Scattered clouds.2 mph88%29.83 "HgN/A
8:00 AM70 °FScattered clouds.2 mph88%29.83 "HgN/A
7:30 AM68 °FScattered clouds.5 mph94%29.83 "Hg4 mi
7:00 AM68 °FScattered clouds.7 mph88%29.86 "Hg4 mi
6:30 AM68 °FScattered clouds.6 mph88%29.83 "Hg4 mi
6:00 AM68 °FPassing clouds.5 mph88%29.83 "HgN/A
5:30 AM68 °FClear.6 mph88%29.80 "Hg10 mi
5:00 AM68 °FClear.6 mph88%29.80 "Hg10 mi
4:30 AM66 °FClear.3 mph94%29.77 "Hg10 mi
4:00 AM66 °FClear.9 mph94%29.77 "Hg10 mi
3:30 AM68 °FClear.7 mph88%29.77 "Hg10 mi
3:00 AM68 °FClear.7 mph88%29.80 "Hg10 mi
2:30 AM68 °FClear.5 mph88%29.80 "Hg10 mi
2:00 AM66 °FClear.5 mph94%29.80 "Hg10 mi
1:30 AM68 °FClear.3 mph88%29.80 "Hg10 mi
1:00 AM68 °FClear.6 mph88%29.80 "Hg10 mi
12:30 AM68 °FClear.6 mph88%29.80 "Hg10 mi
12:00 AM68 °FClear.6 mph88%29.80 "Hg10 mi
11:30 PM
Jul 30
68 °FClear.6 mph88%29.80 "Hg10 mi
11:00 PM70 °FClear.5 mph83%29.80 "Hg10 mi
10:30 PM70 °FClear.7 mph88%29.80 "Hg10 mi
10:00 PM70 °FClear.6 mph88%29.80 "Hg10 mi
9:30 PM70 °FClear.7 mph88%29.80 "Hg10 mi
9:00 PM73 °FSunny.2 mph78%29.80 "Hg10 mi
8:30 PM75 °FSunny.3 mph74%29.83 "Hg10 mi
8:00 PM77 °FPassing clouds.3 mph69%29.80 "HgN/A
7:30 PM79 °FSunny.2 mph65%29.80 "Hg10 mi
7:00 PM79 °FSunny.5 mph65%29.80 "Hg10 mi
6:30 PM79 °FSunny.5 mph65%29.80 "Hg10 mi
6:00 PM81 °FPassing clouds.6 mph62%29.80 "HgN/A
Weather by CustomWeather, © 2014

See weather overviewHow to use our weather pages